Location: Zerbst
(51.9650°N, 12.0766°E)
Time: 11:47:31
(UTC+02:00)

ISS - Pass Details

Date: 21 May 2017
Orbit: 401 x 407 km, 51.6° (Epoch: 25 September)

Event Time Altitude Azimuth Distance (km) Brightness Sun altitude
Exits shadow 01:31:43 58° 199° (SSW) 490 -3.8 -17.7°
Drops below altitude 10° 01:35:22 10° 83° (E) 1,488 -0.8 -17.6°
Enters shadow 02:41:49 -48° 269° (W) 10,067 3.2 -15.0°
Maximum altitude 03:08:37 86° 188° (S) 420 -3.9 -13.2°
